Location: Bush Observatory
(40.2653°N, 94.3194°W)
Time: 00:58:26
(UTC-05:00)

JAS-2 - Visible Passes

Search period start: 04 May 2015 00:00
Search period end: 14 May 2015 00:00
Orbit: 800 x 1321 km, 98.5° (Epoch: 02 May)

Date Brightness Start Highest point End Pass type
(mag) Time Alt. Az. Time Alt. Az. Time Alt. Az.
04 May 11.5 04:20:20 10° NE 04:24:39 22° E 04:28:50 10° SE visible
05 May 9.8 05:09:28 10° NNE 05:15:13 62° E 05:20:28 10° S visible
06 May 11.6 04:15:39 10° NE 04:19:36 20° E 04:23:32 10° SE visible
07 May 9.9 05:04:36 10° NNE 05:10:12 56° E 05:15:22 10° S visible
08 May 11.6 04:10:57 10° NE 04:14:33 18° E 04:18:11 10° SE visible
09 May 10.0 04:59:44 10° NNE 05:05:11 51° E 05:10:16 10° S visible
10 May 11.6 04:06:17 10° NE 04:09:29 16° E 04:12:49 10° SE visible
11 May 10.2 04:54:52 10° NNE 05:00:10 47° E 05:05:10 10° S visible
12 May 11.7 04:01:39 10° NE 04:04:25 15° E 04:07:24 10° ESE visible
13 May 10.3 04:49:59 10° NNE 04:55:08 43° E 05:00:03 10° S visible
